SCP
0 -0 -0 -0 -0 -0 -0 -0 -0 -0 -0 -0 -0 -0 -0 -0 -0 -0 -0 -0 -0 -0 -0 -0 -0 -0 -0 -0 -0 -0 -0 -0 -0 -0 -0 -0 -0 -0 -0 0 0 0 -0
-0 -0 0 -0 -0 -0 -0 -0 -0 -0 -0 -0 -0 -0 -0 -0 -0 -0 -0 -0 -0 -0 -0 -0 -0 -0 -0 -0 -0 -0 -0 -0 0 -0 -0 0 0 0 -0 -0 0 0 0
-0 -0 -0 0 -0 -0 -0 -0 -0 -0 -0 -0 -0 -0 -0 -0 -0 -0 -0 -0 -0 -0 -0 -0 -0 -0 -0 -0 -0 -0 -0 -0 -0 -0 -0 -0 0 0 0 0 0 0 0
-0 -0 -0 -0 -0 -0 -0 -0 0 0 0 -0 -0 -0 -0 -0 -0 -0 -0 -0 -0 -0 -0 -0 -0 -0 -0 -0 -0 -0 -0 -0 -0 -0 -0 0 0 0 0 0 0 0 0
-0 -0 -0 -0 -0 -0 -0 -0 0 0 -0 -0 -0 -0 -0 -0 -0 -0 -0 -0 -0 -0 -0 -0 -0 -0 -0 -0 -0 -0 -0 -0 -0 -0 0 0 0 0 0 0 0 0 0
-0 -0 -0 -0 -0 -0 -0 -0 0 -0 -0 -0 -0 -0 -0 -0 -0 -0 -0 -0 -0 -0 -0 -0 -0 -0 -0 -0 -0 -0 -0 -0 -0 0 0 0 0 0 0 0 0 0 0
-0 -0 -0 -0 0 -0 -0 -0 -0 -0 -0 -0 -0 -0 -0 -0 -0 -0 -0 -0 -0 -0 -0 -0 -0 -0 -0 -0 0 0 -0 -0 0 0 0 0 0 0 0 0 0 0 0
-0 0 -0 -0 0 0 0 -0 -0 -0 -0 -0 -0 -0 -0 -0 -0 -0 -0 -0 -0 -0 -0 -0 -0 0 0 0 0 0 -0 -0 0 0 0 0 0 0 0 0 0 0 0
-0 0 -0 -0 0 0 -0 0 0 0 0 -0 -0 -0 -0 -0 -0 -0 -0 -0 -0 -0 -0 0 0 0 0 0 0 0 0 0 0 0 0 0 0 0 0 0 0 0 0
0 0 0 -0 -0 -0 -0 0 0 0 0 0 0 -0 0 0 0 0 0 0 0 0 0 0 0 0 0 0 0 0 -0 0 0 0 0 0 0 0 0 0 0 0 0
0 0 0 0 0 0 0 0 0 0 0 0 0 0 0 0 0 0 0 0 0 0 0 0 0 0 0 0 0 -0 -0 0 0 0 0 0 0 0 0 0 0 0 0
0 0 0 0 0 -0 0 0 0 0 0 0 0 0 0 0 0 0 0 0 0 0 0 0 0 0 0 0 0 -0 0 0 0 0 0 0 0 0 0 0 0 0 0
0 0 0 0 0 0 0 0 0 0 0 0 0 0 0 0 0 0 0 0 0 0 0 0 0 0 0 0 0 0 0 0 0 0 0 0 0 0 0 0 0 0 0
0 0 0 0 0 0 0 0 0 0 0 0 0 0 0 0 0 0 0 0 0 0 0 0 0 0 0 0 0 0 0 0 0 0 0 0 0 0 0 0 0 0 0
0 0 0 0 0 0 0 0 0 0 0 0 0 0 0 0 0 0 0 0 0 0 0 0 0 0 0 0 0 0 0 0 0 0 0 0 0 0 0 0 0 0 0
0 0 0 0 0 0 0 0 0 0 0 0 0 0 0 0 0 0 0 0 0 0 0 0 0 0 0 0 0 0 0 0 0 0 0 0 0 0 0 0 0 0 0
0 0 0 0 0 0 0 0 0 0 0 0 0 0 0 0 0 0 0 0 0 0 0 0 0 0 0 0 0 0 0 0 0 0 0 0 0 0 0 0 0 0 0
0 0 0 0 0 0 0 0 0 0 0 0 0 0 0 0 0 0 0 0 0 0 0 0 0 0 0 0 0 0 0 0 0 0 0 0 0 0 0 0 0 0 0
0 0 0 0 0 0 0 0 0 0 0 0 0 0 0 0 0 0 0 0 0 0 0 0 0 0 0 0 0 0 0 0 0 0 0 0 0 0 0 0 0 0 0
0 0 0 0 0 0 0 0 0 0 0 0 0 0 0 0 0 0 0 0 0 0 0 0 0 0 0 0 0 0 0 0 0 0 0 0 0 0 0 0 0 0 0
0 0 0 0 0 0 0 0 0 0 0 0 0 0 0 0 0 0 0 0 0 0 0 0 0 0 0 0 0 0 0 0 0 0 0 0 0 0 0 0 0 0 0
0 0 0 0 0 0 0 0 0 0 0 0 0 0 0 0 0 0 0 0 0 0 0 0 0 0 0 0 0 0 0 0 0 0 0 0 0 0 0 0 0 0 0
0 0 0 0 0 0 0 0 0 0 0 0 0 0 0 0 0 0 0 0 0 0 0 0 0 0 0 0 0 0 0 0 0 0 0 0 0 0 0 0 0 0 0
0 0 0 0 0 0 0 0 0 0 0 0 0 0 0 0 0 0 0 0 0 0 0 0 0 0 0 0 0 0 0 0 0 0 0 0 0 0 0 0 0 0 0
0 0 0 0 0 0 0 0 0 0 0 0 0 0 0 0 0 0 0 0 0 0 0 0 0 0 0 0 0 0 0 0 0 0 0 0 0 0 0 0 0 0 0
0 0 0 0 0 0 0 0 0 0 0 0 0 0 0 0 0 0 0 0 0 0 0 0 0 0 0 0 0 0 0 0 0 0 0 0 0 0 0 0 0 0 0
Wind_Speed_500mb
20 17 20 18 15 14 12 9 5 2 2 5 5 5 12 24 27 29 24 26 29 26 29 31 32 33 34 35 36 35 34 34 36 42 45 41 38 37 36 33 26 31 33
25 20 21 19 15 11 8 5 3 0 3 3 10 19 24 25 27 28 21 25 29 19 31 29 30 34 33 34 33 32 33 34 40 38 36 36 33 32 33 33 30 25 23
25 19 21 19 14 8 7 5 2 3 3 13 19 22 25 24 28 28 20 31 28 15 17 28 31 31 31 33 31 31 33 36 41 36 30 27 32 29 24 19 15 14 11
24 20 20 21 12 9 8 6 5 6 17 20 23 23 24 23 27 30 19 33 27 16 21 30 31 29 28 30 28 25 27 29 32 30 15 16 19 15 13 12 13 15 20
23 22 23 21 13 12 8 6 10 10 20 19 22 23 22 21 27 30 24 26 18 23 25 29 27 25 26 25 25 26 24 28 33 21 28 24 15 10 12 15 23 21 15
27 23 23 20 16 15 11 8 7 8 9 19 16 22 20 22 24 29 23 26 24 19 25 25 22 22 22 23 23 23 23 26 27 13 19 14 10 14 20 24 19 15 16
31 21 25 21 18 16 11 8 6 7 7 9 14 18 18 18 25 27 22 22 23 21 18 21 20 20 19 19 19 18 17 20 21 8 13 10 10 15 23 21 16 19 20
25 22 24 25 22 19 16 13 8 6 4 4 5 12 17 17 21 27 22 21 23 23 19 17 16 15 16 16 16 16 14 22 8 10 10 7 15 17 18 18 20 20 20
24 25 22 25 24 22 22 21 14 9 7 9 11 13 18 18 20 23 22 20 20 17 15 14 13 11 11 13 15 15 16 23 5 11 11 8 17 11 13 17 20 20 20
25 24 24 22 25 26 27 24 19 13 9 8 9 6 11 15 17 18 19 18 16 15 13 10 9 8 8 10 12 15 13 17 8 6 4 8 17 9 12 14 18 17 17
27 25 25 26 24 26 25 27 23 18 15 11 13 11 8 12 13 15 16 13 15 14 10 7 5 5 6 9 12 13 18 11 5 3 4 8 13 7 14 14 18 17 17
33 30 28 28 29 27 28 26 24 22 19 16 17 15 14 16 16 17 18 17 16 14 9 4 1 3 8 12 15 18 7 11 8 10 11 8 8 14 15 13 18 20 18
35 32 32 31 31 31 33 29 27 23 18 19 21 20 20 20 23 20 19 19 17 14 7 4 3 2 6 2 6 2 4 6 5 2 14 13 12 12 19 18 20 21 21
37 36 35 34 34 35 33 34 32 28 26 23 26 28 27 26 24 21 20 20 19 16 13 10 8 11 8 7 6 6 7 9 8 12 16 17 16 12 19 23 23 23 22
39 39 38 37 36 36 37 34 33 33 31 25 28 30 30 28 27 26 25 24 21 19 16 14 13 12 11 10 10 11 12 16 13 16 21 22 19 20 24 26 25 25 27
44 43 43 44 41 36 37 36 34 33 32 32 33 32 33 31 29 29 28 26 24 22 18 16 15 13 13 15 14 14 13 21 18 20 24 25 26 26 28 21 23 25 24
41 43 47 52 50 45 42 38 38 36 36 38 38 38 36 36 32 30 30 29 28 27 25 23 22 20 17 18 16 16 17 18 21 20 21 20 18 19 18 18 20 21 23
41 46 46 51 56 55 52 46 43 40 39 39 42 42 43 41 38 37 35 33 31 31 28 27 21 21 21 18 17 19 20 21 26 24 23 22 22 23 21 19 20 20 22
45 46 50 53 57 61 60 53 48 44 45 43 44 46 46 46 44 41 39 36 35 35 33 30 27 26 24 23 21 25 30 28 30 35 31 31 31 31 31 35 28 28 27
47 50 52 55 58 60 64 61 53 51 54 49 48 50 50 50 50 49 45 43 41 41 40 37 35 30 27 25 35 34 32 32 34 40 36 34 31 34 37 40 44 39 38
51 56 58 58 61 57 65 70 67 63 62 58 56 56 55 52 54 53 52 50 49 49 46 41 38 35 36 32 36 37 39 38 40 42 39 29 27 31 37 43 46 48 47
59 59 57 62 61 67 70 72 76 73 69 63 62 63 61 56 54 56 57 56 55 54 51 47 45 42 39 38 39 23 22 27 37 22 21 27 29 35 44 46 48 49 49
67 68 64 62 68 71 72 71 64 63 64 67 67 68 69 64 63 59 58 59 60 57 56 53 53 52 47 43 45 34 17 15 14 23 24 38 32 40 46 53 56 53 53
73 74 73 70 68 73 74 70 78 82 80 81 78 77 74 71 71 69 63 61 62 62 60 59 57 56 51 46 46 51 53 49 26 31 34 35 40 52 52 54 61 62 63
61 70 75 72 72 72 74 79 79 79 82 78 75 73 71 75 74 75 71 68 67 65 63 62 62 61 60 60 59 54 55 54 52 58 52 50 42 49 62 63 66 67 66
57 61 71 75 76 72 75 79 85 82 82 75 76 67 71 74 76 76 78 76 75 74 73 69 65 63 61 62 64 60 56 51 42 47 53 60 63 63 67 66 66 68 62
Wind_Direction_500mb
141 155 143 135 140 142 143 149 152 181 338 353 18 119 110 109 107 103 100 89 94 86 114 93 91 90 87 87 83 83 83 85 84 80 66 68 72 75 72 66 70 67 77
148 160 153 150 154 157 157 170 174 339 342 11 92 105 107 113 109 110 101 101 106 98 92 97 91 89 87 84 81 75 74 79 81 80 74 58 67 73 71 89 88 88 83
147 168 160 154 158 161 159 134 93 67 102 111 110 113 114 113 117 113 111 93 100 102 86 93 93 91 87 82 77 77 79 85 80 79 77 71 75 86 93 88 64 41 23
151 148 163 157 164 160 139 95 59 60 115 106 112 109 113 112 117 116 108 112 121 122 96 96 95 88 82 77 77 83 88 86 77 68 86 104 91 80 66 38 6 350 340
152 165 171 167 166 166 143 105 73 101 115 110 119 119 119 117 125 121 119 117 117 103 100 101 94 84 81 79 81 81 84 97 77 68 82 99 93 49 23 356 341 352 1
160 176 173 174 173 177 161 139 81 70 96 116 126 133 123 136 126 130 127 128 129 114 105 97 99 93 80 71 70 75 88 93 77 84 98 89 62 24 356 351 359 10 27
162 177 175 180 179 185 181 171 127 93 80 106 133 130 133 138 134 133 141 130 126 121 113 108 93 78 75 68 63 68 82 92 85 64 91 64 28 18 352 356 17 25 36
164 170 183 183 185 186 183 191 192 142 127 132 132 140 141 138 135 142 148 139 131 135 130 108 91 76 71 64 60 64 81 89 93 96 49 27 4 9 3 5 17 29 37
182 173 186 184 187 189 191 194 207 212 196 181 177 168 154 155 150 151 150 144 138 126 109 100 87 76 65 57 53 57 78 105 88 106 50 2 9 10 23 12 21 30 38
188 182 180 186 187 195 195 202 221 228 211 211 212 209 182 170 162 155 153 154 140 135 125 108 95 80 52 44 40 39 58 72 64 76 85 6 346 35 22 18 17 30 33
192 190 187 185 186 194 199 207 212 217 214 219 213 204 195 181 162 155 161 167 156 150 145 134 101 58 26 25 27 27 54 45 50 316 309 344 329 341 4 9 12 13 16
197 195 192 187 183 197 198 213 206 213 218 216 209 200 176 194 187 183 183 180 175 175 175 167 105 34 24 350 350 23 37 53 53 1 335 313 358 316 327 357 2 359 6
202 200 197 194 188 194 203 208 200 213 203 204 207 203 193 196 206 199 194 194 194 196 203 238 246 355 240 207 279 359 348 30 61 342 308 337 335 297 310 339 342 346 352
207 205 206 202 198 195 217 205 206 211 208 214 215 211 206 203 210 200 208 208 208 207 207 226 247 245 281 286 269 269 298 343 352 322 325 337 335 292 291 313 322 327 332
212 210 213 207 205 203 207 213 211 212 217 220 225 221 215 214 218 212 212 213 216 217 220 231 233 258 269 267 276 297 308 308 308 315 321 320 326 314 303 296 307 315 320
207 213 212 216 212 211 211 216 219 221 221 216 227 229 222 221 221 220 221 220 221 220 222 224 240 249 252 249 265 264 280 288 303 309 315 318 320 316 320 301 307 311 307
220 214 218 223 226 219 221 221 221 224 221 225 227 230 228 224 225 222 223 226 228 229 228 234 239 240 239 247 258 254 271 296 302 328 325 325 336 339 344 329 323 309 301
217 218 219 225 225 227 227 227 227 225 227 229 231 231 231 230 227 227 225 227 232 234 237 241 240 241 243 246 254 262 268 285 291 306 309 312 317 315 322 317 315 311 302
219 219 218 226 230 228 229 228 225 220 227 232 234 234 235 233 231 231 232 232 232 237 239 236 237 239 243 251 250 252 267 281 289 292 294 297 300 301 295 300 299 298 299
220 220 223 225 231 231 230 230 228 229 230 230 233 235 236 236 234 233 234 235 234 237 240 244 243 244 239 245 250 268 274 283 287 289 294 287 293 294 291 283 292 295 296
228 229 224 223 231 224 229 229 229 230 232 230 230 236 236 237 238 237 236 236 237 240 244 245 248 246 243 239 255 270 271 275 281 281 293 285 284 293 294 292 290 294 294
238 234 233 229 227 230 232 236 237 238 236 239 239 240 238 238 240 240 239 240 241 243 244 245 245 246 243 243 253 260 281 286 292 278 287 287 287 285 289 294 293 291 292
241 239 243 243 238 230 235 232 233 239 241 235 237 243 241 239 242 242 242 242 244 246 248 249 248 249 246 247 253 247 257 256 285 283 277 296 290 288 290 297 300 302 301
249 245 251 254 247 235 234 227 232 237 234 242 241 243 246 244 242 245 243 243 245 246 248 250 252 254 254 245 255 253 257 256 265 284 286 287 281 287 296 301 301 302 306
250 254 256 250 245 241 231 233 233 234 243 244 245 242 245 247 245 245 246 245 246 247 250 250 252 252 253 256 255 256 259 266 266 263 271 279 284 287 292 294 301 305 309
251 248 254 254 247 241 236 234 237 239 240 242 242 238 238 246 248 245 243 244 246 248 249 252 254 256 256 259 260 257 255 254 261 259 268 277 283 286 288 295 298 302 308
Wind_Speed_850mb
20 17 20 18 15 14 12 9 5 2 2 5 5 5 12 24 27 29 24 26 29 26 29 31 32 33 34 35 36 35 34 34 36 42 45 41 38 37 36 33 26 31 33
25 20 21 19 15 11 8 5 3 0 3 3 10 19 24 25 27 28 21 25 29 19 31 29 30 34 33 34 33 32 33 34 40 38 36 36 33 32 33 33 30 25 23
25 19 21 19 14 8 7 5 2 3 3 13 19 22 25 24 28 28 20 31 28 15 17 28 31 31 31 33 31 31 33 36 41 36 30 27 32 29 24 19 15 14 11
24 20 20 21 12 9 8 6 5 6 17 20 23 23 24 23 27 30 19 33 27 16 21 30 31 29 28 30 28 25 27 29 32 30 15 16 19 15 13 12 13 15 20
23 22 23 21 13 12 8 6 10 10 20 19 22 23 22 21 27 30 24 26 18 23 25 29 27 25 26 25 25 26 24 28 33 21 28 24 15 10 12 15 23 21 15
27 23 23 20 16 15 11 8 7 8 9 19 16 22 20 22 24 29 23 26 24 19 25 25 22 22 22 23 23 23 23 26 27 13 19 14 10 14 20 24 19 15 16
31 21 25 21 18 16 11 8 6 7 7 9 14 18 18 18 25 27 22 22 23 21 18 21 20 20 19 19 19 18 17 20 21 8 13 10 10 15 23 21 16 19 20
25 22 24 25 22 19 16 13 8 6 4 4 5 12 17 17 21 27 22 21 23 23 19 17 16 15 16 16 16 16 14 22 8 10 10 7 15 17 18 18 20 20 20
24 25 22 25 24 22 22 21 14 9 7 9 11 13 18 18 20 23 22 20 20 17 15 14 13 11 11 13 15 15 16 23 5 11 11 8 17 11 13 17 20 20 20
25 24 24 22 25 26 27 24 19 13 9 8 9 6 11 15 17 18 19 18 16 15 13 10 9 8 8 10 12 15 13 17 8 6 4 8 17 9 12 14 18 17 17
27 25 25 26 24 26 25 27 23 18 15 11 13 11 8 12 13 15 16 13 15 14 10 7 5 5 6 9 12 13 18 11 5 3 4 8 13 7 14 14 18 17 17
33 30 28 28 29 27 28 26 24 22 19 16 17 15 14 16 16 17 18 17 16 14 9 4 1 3 8 12 15 18 7 11 8 10 11 8 8 14 15 13 18 20 18
35 32 32 31 31 31 33 29 27 23 18 19 21 20 20 20 23 20 19 19 17 14 7 4 3 2 6 2 6 2 4 6 5 2 14 13 12 12 19 18 20 21 21
37 36 35 34 34 35 33 34 32 28 26 23 26 28 27 26 24 21 20 20 19 16 13 10 8 11 8 7 6 6 7 9 8 12 16 17 16 12 19 23 23 23 22
39 39 38 37 36 36 37 34 33 33 31 25 28 30 30 28 27 26 25 24 21 19 16 14 13 12 11 10 10 11 12 16 13 16 21 22 19 20 24 26 25 25 27
44 43 43 44 41 36 37 36 34 33 32 32 33 32 33 31 29 29 28 26 24 22 18 16 15 13 13 15 14 14 13 21 18 20 24 25 26 26 28 21 23 25 24
41 43 47 52 50 45 42 38 38 36 36 38 38 38 36 36 32 30 30 29 28 27 25 23 22 20 17 18 16 16 17 18 21 20 21 20 18 19 18 18 20 21 23
41 46 46 51 56 55 52 46 43 40 39 39 42 42 43 41 38 37 35 33 31 31 28 27 21 21 21 18 17 19 20 21 26 24 23 22 22 23 21 19 20 20 22
45 46 50 53 57 61 60 53 48 44 45 43 44 46 46 46 44 41 39 36 35 35 33 30 27 26 24 23 21 25 30 28 30 35 31 31 31 31 31 35 28 28 27
47 50 52 55 58 60 64 61 53 51 54 49 48 50 50 50 50 49 45 43 41 41 40 37 35 30 27 25 35 34 32 32 34 40 36 34 31 34 37 40 44 39 38
51 56 58 58 61 57 65 70 67 63 62 58 56 56 55 52 54 53 52 50 49 49 46 41 38 35 36 32 36 37 39 38 40 42 39 29 27 31 37 43 46 48 47
59 59 57 62 61 67 70 72 76 73 69 63 62 63 61 56 54 56 57 56 55 54 51 47 45 42 39 38 39 23 22 27 37 22 21 27 29 35 44 46 48 49 49
67 68 64 62 68 71 72 71 64 63 64 67 67 68 69 64 63 59 58 59 60 57 56 53 53 52 47 43 45 34 17 15 14 23 24 38 32 40 46 53 56 53 53
73 74 73 70 68 73 74 70 78 82 80 81 78 77 74 71 71 69 63 61 62 62 60 59 57 56 51 46 46 51 53 49 26 31 34 35 40 52 52 54 61 62 63
61 70 75 72 72 72 74 79 79 79 82 78 75 73 71 75 74 75 71 68 67 65 63 62 62 61 60 60 59 54 55 54 52 58 52 50 42 49 62 63 66 67 66
57 61 71 75 76 72 75 79 85 82 82 75 76 67 71 74 76 76 78 76 75 74 73 69 65 63 61 62 64 60 56 51 42 47 53 60 63 63 67 66 66 68 62
Wind_Direction_850mb
141 155 143 135 140 142 143 149 152 181 338 353 18 119 110 109 107 103 100 89 94 86 114 93 91 90 87 87 83 83 83 85 84 80 66 68 72 75 72 66 70 67 77
148 160 153 150 154 157 157 170 174 339 342 11 92 105 107 113 109 110 101 101 106 98 92 97 91 89 87 84 81 75 74 79 81 80 74 58 67 73 71 89 88 88 83
147 168 160 154 158 161 159 134 93 67 102 111 110 113 114 113 117 113 111 93 100 102 86 93 93 91 87 82 77 77 79 85 80 79 77 71 75 86 93 88 64 41 23
151 148 163 157 164 160 139 95 59 60 115 106 112 109 113 112 117 116 108 112 121 122 96 96 95 88 82 77 77 83 88 86 77 68 86 104 91 80 66 38 6 350 340
152 165 171 167 166 166 143 105 73 101 115 110 119 119 119 117 125 121 119 117 117 103 100 101 94 84 81 79 81 81 84 97 77 68 82 99 93 49 23 356 341 352 1
160 176 173 174 173 177 161 139 81 70 96 116 126 133 123 136 126 130 127 128 129 114 105 97 99 93 80 71 70 75 88 93 77 84 98 89 62 24 356 351 359 10 27
162 177 175 180 179 185 181 171 127 93 80 106 133 130 133 138 134 133 141 130 126 121 113 108 93 78 75 68 63 68 82 92 85 64 91 64 28 18 352 356 17 25 36
164 170 183 183 185 186 183 191 192 142 127 132 132 140 141 138 135 142 148 139 131 135 130 108 91 76 71 64 60 64 81 89 93 96 49 27 4 9 3 5 17 29 37
182 173 186 184 187 189 191 194 207 212 196 181 177 168 154 155 150 151 150 144 138 126 109 100 87 76 65 57 53 57 78 105 88 106 50 2 9 10 23 12 21 30 38
188 182 180 186 187 195 195 202 221 228 211 211 212 209 182 170 162 155 153 154 140 135 125 108 95 80 52 44 40 39 58 72 64 76 85 6 346 35 22 18 17 30 33
192 190 187 185 186 194 199 207 212 217 214 219 213 204 195 181 162 155 161 167 156 150 145 134 101 58 26 25 27 27 54 45 50 316 309 344 329 341 4 9 12 13 16
197 195 192 187 183 197 198 213 206 213 218 216 209 200 176 194 187 183 183 180 175 175 175 167 105 34 24 350 350 23 37 53 53 1 335 313 358 316 327 357 2 359 6
202 200 197 194 188 194 203 208 200 213 203 204 207 203 193 196 206 199 194 194 194 196 203 238 246 355 240 207 279 359 348 30 61 342 308 337 335 297 310 339 342 346 352
207 205 206 202 198 195 217 205 206 211 208 214 215 211 206 203 210 200 208 208 208 207 207 226 247 245 281 286 269 269 298 343 352 322 325 337 335 292 291 313 322 327 332
212 210 213 207 205 203 207 213 211 212 217 220 225 221 215 214 218 212 212 213 216 217 220 231 233 258 269 267 276 297 308 308 308 315 321 320 326 314 303 296 307 315 320
207 213 212 216 212 211 211 216 219 221 221 216 227 229 222 221 221 220 221 220 221 220 222 224 240 249 252 249 265 264 280 288 303 309 315 318 320 316 320 301 307 311 307
220 214 218 223 226 219 221 221 221 224 221 225 227 230 228 224 225 222 223 226 228 229 228 234 239 240 239 247 258 254 271 296 302 328 325 325 336 339 344 329 323 309 301
217 218 219 225 225 227 227 227 227 225 227 229 231 231 231 230 227 227 225 227 232 234 237 241 240 241 243 246 254 262 268 285 291 306 309 312 317 315 322 317 315 311 302
219 219 218 226 230 228 229 228 225 220 227 232 234 234 235 233 231 231 232 232 232 237 239 236 237 239 243 251 250 252 267 281 289 292 294 297 300 301 295 300 299 298 299
220 220 223 225 231 231 230 230 228 229 230 230 233 235 236 236 234 233 234 235 234 237 240 244 243 244 239 245 250 268 274 283 287 289 294 287 293 294 291 283 292 295 296
228 229 224 223 231 224 229 229 229 230 232 230 230 236 236 237 238 237 236 236 237 240 244 245 248 246 243 239 255 270 271 275 281 281 293 285 284 293 294 292 290 294 294
238 234 233 229 227 230 232 236 237 238 236 239 239 240 238 238 240 240 239 240 241 243 244 245 245 246 243 243 253 260 281 286 292 278 287 287 287 285 289 294 293 291 292
241 239 243 243 238 230 235 232 233 239 241 235 237 243 241 239 242 242 242 242 244 246 248 249 248 249 246 247 253 247 257 256 285 283 277 296 290 288 290 297 300 302 301
249 245 251 254 247 235 234 227 232 237 234 242 241 243 246 244 242 245 243 243 245 246 248 250 252 254 254 245 255 253 257 256 265 284 286 287 281 287 296 301 301 302 306
250 254 256 250 245 241 231 233 233 234 243 244 245 242 245 247 245 245 246 245 246 247 250 250 252 252 253 256 255 256 259 266 266 263 271 279 284 287 292 294 301 305 309
251 248 254 254 247 241 236 234 237 239 240 242 242 238 238 246 248 245 243 244 246 248 249 252 254 256 256 259 260 257 255 254 261 259 268 277 283 286 288 295 298 302 308